Weather observations for the past three days for
Saipan Island, Saipan International Airport
Imperial (Metric)
Date Time (chst) Wind (mph) Vis. (mi.) Weather Sky Cond. Temperature (ºF) Relative Humidity Wind Chill (°F) Heat Index (°F) Pressure Precipitation (in)
Air Dwpt 6 hour altimeter (in) sea level (mb) 1 hr 3 hr 6 hr
Max. Min.
03 02:54 E 15 0.00 Overcast OVC022 79 71.1 77% 82 29.85 1012.9
03 01:54 E 15 0.00 Overcast OVC023 79 70 74% 82 29.86 1013.4
03 00:54 E 20 G 25 0.00 Overcast OVC026 79 71.1 77% 82 29.89 1014.1
02 23:54 E 17 0.00 Overcast OVC023 80.1 70 71% 83 29.9 1014.7
02 22:54 E 16 10.00 Partly Cloudy SCT027 80.1 71.1 74% 84 29.91 1015.0
02 21:54 E 16 G 25 10.00 Partly Cloudy SCT027 80.1 71.1 86 80.1 74% 84 29.91 1014.8
02 20:54 E 20 10.00 Partly Cloudy SCT027 80.1 70 71% 83 29.89 1014.4
02 19:54 E 17 10.00 Partly Cloudy SCT027 80.1 72 76% 84 29.88 1013.8
02 18:54 E 17 10.00 Partly Cloudy SCT027 81 72 74% 85 29.86 1013.2
02 17:54 E 20 10.00 Partly Cloudy SCT025 82 72 72% 87 29.84 1012.5
02 16:54 E 22 G 30 10.00 Partly Cloudy and Breezy SCT023 84 73.9 72% 91 29.82 1011.9
02 15:54 E 22 10.00 Partly Cloudy and Breezy SCT023 84.9 73.9 87.1 84.9 70% 92 29.82 1011.9
02 14:54 E 22 G 29 10.00 Partly Cloudy and Breezy SCT021 87.1 73 63% 95 29.82 1011.7
02 13:54 E 20 G 29 10.00 Partly Cloudy SCT021 87.1 75 67% 97 29.83 1012.3
02 12:54 E 22 10.00 Partly Cloudy and Breezy SCT018 87.1 75 67% 97 29.85 1013.0
02 11:54 E 23 G 32 10.00 Partly Cloudy and Breezy SCT018 87.1 73.9 65% 95 29.87 1013.7
02 10:54 E 22 G 30 10.00 A Few Clouds and Breezy FEW018 86 73.9 67% 94 29.89 1014.1
02 09:54 E 22 G 29 10.00 Partly Cloudy and Breezy SCT021 84.9 73.9 84.9 75.9 70% 92 29.89 1014.4 0.01
02 08:54 E 22 10.00 Partly Cloudy and Breezy SCT023 82.9 75 77% 90 29.9 1014.6 0.01
02 07:54 E 17 G 29 8.00 Mostly Cloudy SCT018CB BKN028 BKN045 80.6 75.2 84% 86 29.89 0.0
02 06:54 E 8 8.00 Mostly Cloudy SCT017CB BKN037 BKN050 78.1 75 90% 81 29.88 1013.9
02 05:54 E 14 10.00 Mostly Cloudy SCT015 SCT032 BKN065 78.8 75.2 89% 82 29.86 0.0
02 04:54 E 15 0.00 Mostly Cloudy FEW020 BKN029 BKN033 78.8 73.4 84% 82 29.85 0.0
02 03:54 E 14 10.00 Overcast FEW020 OVC026 80.6 75.2 84% 86 29.85 0.0
02 02:54 E 13 0.00 Overcast FEW020 OVC026 80.1 73.9 82% 85 29.85 1012.9
02 01:54 E 14 0.00 Overcast OVC020 80.1 75 85% 85 29.86 1013.2
02 00:54 E 13 0.00 Overcast OVC019 80.1 75 85% 85 29.88 1014.0
01 23:54 E 13 10.00 Partly Cloudy SCT021 80.1 75 85% 85 29.9 1014.6
01 22:54 E 14 10.00 Partly Cloudy SCT021 80.1 75 85% 85 29.91 1014.8
01 21:54 E 13 10.00 Partly Cloudy SCT021 81 75 84 80.1 82% 87 29.9 1014.8
01 20:54 E 13 10.00 Partly Cloudy SCT019 SCT025 81 75 82% 87 29.89 1014.2
01 19:54 E 14 10.00 Partly Cloudy SCT016 81 75 82% 87 29.87 1013.6
01 18:54 E 16 10.00 Partly Cloudy SCT016 SCT023 81 75.9 85% 87 29.85 1013.0
01 17:54 E 15 10.00 Partly Cloudy SCT021 82 75 79% 89 29.84 1012.5
01 16:54 E 17 10.00 Partly Cloudy SCT021 84 75.9 77% 93 29.83 1012.2
01 15:54 E 16 10.00 Partly Cloudy SCT019 SCT026 82.9 75.9 87.1 79 79% 91 29.83 1012.3 0.16
01 14:54 E 17 10.00 Mostly Cloudy SCT019 SCT023 BKN075 84 77 80% 94 29.84 1012.6 0.01
01 13:54 E 16 G 23 6.00 Light Rain Fog/Mist SCT011 BKN018 OVC050 80.1 77 90% 86 29.86 1013.2 0.12
01 12:54 E 16 8.00 Mostly Cloudy SCT018CB BKN042 BKN080 84.9 75.9 75% 94 29.88 1014.1 0.01 0.03
01 11:54 E 13 G 18 10.00 Light Rain SCT016CB BKN040 OVC080 84 78.1 82% 95 29.9 1014.8 0.02
01 10:54 E 17 10.00 Mostly Cloudy SCT017 BKN075 86 75.9 72% 96 29.92 1015.2
01 09:54 E 17 10.00 Partly Cloudy SCT023 86 75 86 78.1 70% 95 29.93 1015.7
01 08:54 NE 16 10.00 Partly Cloudy SCT021 84 75.9 77% 93 29.93 1015.8
01 07:54 E 14 10.00 A Few Clouds FEW021 82.9 75 77% 90 29.93 1015.6
01 06:54 E 15 10.00 Partly Cloudy SCT021 80.1 73.9 82% 85 29.92 1015.2
01 05:54 E 9 10.00 Partly Cloudy SCT019 78.1 73.9 87% 81 29.91 1014.8
01 04:54 E 12 10.00 Partly Cloudy SCT019 79 73 82% 82 29.9 1014.5
01 03:54 E 14 0.00 Mostly Cloudy SCT018 BKN025 79 73.9 81 78.1 85% 83 29.89 1014.1
01 02:54 E 13 10.00 Mostly Cloudy BKN020 BKN027 79 73.9 85% 83 29.9 1014.5
01 01:54 NE 15 0.00 Partly Cloudy SCT020 79 75 88% 83 29.9 1014.7
01 00:54 E 12 10.00 Partly Cloudy SCT020 78.1 75 90% 81 29.92 1015.4
30 23:54 E 14 0.00 Partly Cloudy SCT020 80.1 73 79% 84 29.94 1016.1
30 22:54 E 15 G 22 10.00 Partly Cloudy SCT020 80.1 73.9 82% 85 29.96 1016.6
30 21:54 E 14 10.00 Partly Cloudy SCT020 80.1 73.9 84.9 80.1 82% 85 29.95 1016.4
30 20:54 E 15 10.00 Partly Cloudy SCT018 80.1 75 85% 85 29.94 1016.0
30 19:54 E 12 10.00 Partly Cloudy SCT021 81 73.9 79% 86 29.92 1015.4
30 18:54 E 13 10.00 Partly Cloudy SCT021 81 73.9 79% 86 29.9 1014.6
30 17:54 E 15 10.00 Partly Cloudy SCT021 82 73.9 77% 88 29.88 1013.8
30 16:54 E 15 10.00 Partly Cloudy SCT018 82.9 75.9 79% 91 29.87 1013.4
30 15:54 NE 17 10.00 Partly Cloudy SCT021 84 75 88 84 74% 92 29.87 1013.6
30 14:54 E 20 10.00 Partly Cloudy SCT019 84.9 75 72% 93 29.87 1013.6
30 13:54 E 17 10.00 Partly Cloudy SCT024 86 73.9 67% 94 29.89 1014.3
30 12:54 E 18 10.00 Partly Cloudy SCT024 86 75 70% 95 29.91 1015.0
30 11:54 E 20 10.00 Partly Cloudy SCT024 86 73 65% 93 29.93 1015.8
30 10:54 E 18 10.00 Partly Cloudy SCT024 86 73.9 67% 94 29.94 1016.1
30 09:54 NE 16 10.00 Partly Cloudy SCT024 84.9 73.9 86 79 70% 92 29.95 1016.3
30 08:54 E 16 G 24 10.00 Partly Cloudy SCT021 84 73 70% 90 29.95 1016.4
30 07:54 E 17 10.00 Partly Cloudy SCT021 82.9 73 72% 89 29.95 1016.2
30 06:54 E 15 G 22 0.00 Partly Cloudy SCT021 80.1 73 79% 84 29.94 1015.9
30 05:54 NE 13 10.00 Partly Cloudy SCT021 79 73 82% 82 29.92 1015.4
30 04:54 NE 10 10.00 Partly Cloudy SCT021 79 73 82% 82 29.91 1015.1
30 03:54 E 14 10.00 Partly Cloudy FEW020 SCT027 79 73 81 79 82% 82 29.92 1015.2
Date Time (chst) Wind (mph) Vis. (mi.) Weather Sky Cond. Air Dwpt Max. Min. Relative Humidity Wind Chill (°F) Heat Index (°F) altimeter (in) sea level (mb) 1 hr 3 hr 6 hr
6 hour
Temperature (ºF) Pressure Precipitation (in)